Date_and_time,latitude,longitude,wind_speed,RelWindDirFrom,WindDirFrom,air_pressure,air_temperature,relative_humidity,Temp,platform_speed_wrt_ground,air_pressure_at_mean_sea_level,platform_orientation
2019-01-04 23:40,50.6304466666667,-96.9807666666667,1.3,1.9,28,976.07,-2.9,99,0.69,0.0,1003.85,270.0
2019-01-04 23:50,50.6304483333333,-96.98077,1.2,1.8,32,976.03,-2.9,99,0.70,0.0,1003.83,270.0
2019-01-05 00:00,50.63045,-96.9807716666667,0.2,1.6,66,976.08,-2.8,99,0.70,0.0,1003.86,360.0
2019-01-05 00:10,50.6304533333333,-96.9807666666667,0.2,1.0,72,976.07,-2.9,99,0.70,0.0,1003.86,360.0
2019-01-05 00:20,50.630455,-96.9807716666667,2.3,3.5,191,976.11,-3.3,99,0.71,0.0,1003.98,360.0
2019-01-05 00:30,50.6304566666667,-96.9807716666667,2.3,3.3,188,976.00,-3.2,99,0.71,0.0,1003.84,360.0
2019-01-05 00:40,50.6304566666667,-96.98077,2.0,2.5,181,975.87,-3.0,98,0.71,0.0,1003.71,360.0
2019-01-05 00:50,50.63045,-96.9807733333333,3.3,4.1,177,975.81,-2.8,97,0.70,0.0,1003.65,360.0
2019-01-05 01:00,50.6304466666667,-96.9807683333333,3.2,4.3,174,975.79,-2.7,96,0.71,0.0,1003.61,12.6
2019-01-05 01:10,50.63045,-96.9807733333333,1.3,1.8,178,975.90,-2.7,96,0.71,0.0,1003.70,12.6
2019-01-05 01:20,50.6304516666667,-96.9807683333333,1.3,1.9,179,975.96,-2.6,94,0.71,0.0,1003.76,12.6
2019-01-05 01:30,50.63045,-96.98077,1.0,1.9,28,976.14,-2.2,95,0.71,0.0,1003.94,12.6
2019-01-05 01:40,50.63045,-96.9807716666667,2.8,4.1,61,975.94,-2.3,98,0.72,0.0,1003.74,12.6
2019-01-05 01:50,50.6304483333333,-96.9807716666667,3.5,4.3,36,975.97,-2.7,99,0.71,0.0,1003.79,12.6
2019-01-05 02:00,50.6304266666667,-96.9807583333333,3.7,4.5,357,976.39,-3.1,99,0.71,0.0,1004.24,165.5
2019-01-05 02:10,50.6304366666667,-96.9807666666667,5.1,5.8,1,976.44,-2.9,99,0.72,0.0,1004.31,165.5
2019-01-05 02:20,50.630445,-96.9807833333333,6.0,7.2,2,976.41,-2.8,99,0.71,0.0,1004.26,165.5
2019-01-05 02:30,50.6304433333333,-96.9807733333333,6.6,8.3,9,976.42,-2.9,99,0.71,0.0,1004.26,165.5
2019-01-05 02:40,50.63043,-96.980745,6.8,7.9,31,976.17,-2.9,99,0.72,0.0,1004.00,165.5
2019-01-05 02:50,50.630445,-96.9807666666667,7.7,10.0,16,975.84,-3.0,99,0.72,0.0,1003.66,165.5
2019-01-05 03:00,50.6304466666667,-96.98076,7.2,9.1,27,975.75,-2.9,99,0.71,0.0,1003.56,125.3
2019-01-05 03:10,50.6304483333333,-96.9807616666667,6.3,8.1,13,975.86,-2.8,99,0.72,0.0,1003.66,125.3
2019-01-05 03:20,50.63044,-96.980755,4.4,6.2,17,976.00,-2.8,99,0.72,0.0,1003.79,125.3
2019-01-05 03:30,50.630445,-96.9807533333333,3.0,3.9,349,976.25,-2.8,99,0.72,0.0,1004.05,125.3
2019-01-05 03:40,50.6304466666667,-96.98076,3.0,3.8,4,976.37,-2.7,99,0.71,0.0,1004.19,125.3
2019-01-05 03:50,50.6304483333333,-96.9807633333333,4.4,6.5,349,976.73,-2.5,97,0.71,0.0,1004.57,125.3
2019-01-05 04:00,50.6304466666667,-96.9807616666667,6.5,8.6,3,976.75,-2.6,97,0.71,0.0,1004.58,90.0
2019-01-05 04:10,50.6304466666667,-96.9807633333333,7.1,8.9,3,976.77,-2.8,99,0.72,0.0,1004.60,90.0
2019-01-05 04:20,50.6304466666667,-96.980765,9.0,10.1,13,976.48,-2.9,99,0.72,0.0,1004.32,90.0
2019-01-05 04:30,50.6304466666667,-96.980765,8.4,10.0,10,976.48,-3.1,99,0.72,0.0,1004.33,90.0
2019-01-05 04:40,50.6304483333333,-96.9807633333333,8.8,11.4,8,976.61,-3.2,99,0.72,0.0,1004.48,90.0
2019-01-05 04:50,50.6304483333333,-96.9807633333333,11.1,13.1,8,976.61,-3.3,99,0.71,0.0,1004.47,90.0
2019-01-05 05:00,50.63045,-96.9807633333333,11.2,12.9,12,976.58,-3.4,100,0.71,0.0,1004.44,360.0
2019-01-05 05:10,50.6304633333333,-96.9807683333333,11.1,12.9,11,976.64,-3.4,100,0.71,0.0,1004.50,360.0
2019-01-05 05:20,50.6304566666667,-96.9807633333333,12.3,14.2,14,976.51,-3.4,100,0.72,0.0,1004.38,360.0
2019-01-05 05:30,50.630405,-96.980755,12.9,14.8,17,976.41,-3.4,100,0.71,0.0,1004.27,360.0
2019-01-05 05:40,50.630455,-96.9807833333333,13.1,15.2,23,976.31,-3.4,100,0.71,0.0,1004.15,360.0
2019-01-05 05:50,50.6304516666667,-96.9807483333333,11.5,13.9,16,976.39,-3.6,100,0.71,0.0,1004.25,360.0
2019-01-05 06:00,50.6304466666667,-96.9807516666667,9.9,12.2,13,976.47,-3.7,100,0.72,0.0,1004.34,90.0
2019-01-05 06:10,50.6304483333333,-96.9807566666667,12.0,15.3,15,976.34,-3.6,101,0.72,0.0,1004.21,90.0
2019-01-05 06:20,50.63045,-96.98077,14.0,18.1,15,976.17,-3.5,101,0.72,0.0,1004.05,90.0
2019-01-05 06:30,50.6304533333333,-96.9807716666667,13.2,16.4,14,976.21,-3.5,101,0.71,0.0,1004.09,90.0
2019-01-05 06:40,50.6304533333333,-96.9807666666667,11.8,14.6,12,976.38,-3.6,101,0.71,0.0,1004.28,90.0
2019-01-05 06:50,50.6304533333333,-96.9807683333333,10.6,13.6,7,976.67,-3.6,101,0.71,0.0,1004.58,90.0
2019-01-05 07:00,50.6304683333333,-96.9807816666667,12.1,14.7,8,976.78,-3.6,101,0.71,0.0,1004.70,323.4
2019-01-05 07:10,50.6304616666667,-96.9807766666667,11.8,13.4,11,976.78,-3.8,101,0.71,0.0,1004.71,323.4
2019-01-05 07:20,50.6304466666667,-96.9807683333333,11.4,13.3,12,976.75,-3.8,101,0.71,0.0,1004.67,323.4
2019-01-05 07:30,50.6304516666667,-96.9807683333333,11.8,15.0,9,976.84,-3.9,101,0.71,0.0,1004.78,323.4
2019-01-05 07:40,50.6304566666667,-96.9807583333333,14.1,16.8,5,976.99,-4.0,101,0.71,0.0,1004.95,323.4
2019-01-05 07:50,50.630455,-96.98076,15.2,18.0,7,977.11,-4.2,101,0.72,0.0,1005.08,323.4
2019-01-05 08:00,50.630455,-96.98076,16.1,18.5,11,977.26,-4.4,100,0.72,0.0,1005.24,90.0
2019-01-05 08:10,50.6304466666667,-96.9807566666667,16.6,19.5,11,977.52,-4.5,100,0.71,0.0,1005.51,90.0
2019-01-05 08:20,50.6304533333333,-96.9807633333333,14.5,17.3,12,977.85,-4.7,100,0.71,0.0,1005.86,90.0
2019-01-05 08:30,50.630455,-96.9807683333333,13.5,15.8,10,978.14,-4.8,100,0.71,0.0,1006.16,90.0
2019-01-05 08:40,50.6304566666667,-96.9807733333333,11.9,14.1,11,978.36,-5.0,100,0.71,0.0,1006.40,90.0
2019-01-05 08:50,50.6304583333333,-96.9807733333333,9.7,12.0,4,978.58,-5.5,100,0.70,0.0,1006.65,90.0
2019-01-05 09:00,50.6304583333333,-96.980775,8.6,10.9,359,978.85,-5.9,100,0.71,0.0,1006.97,310.6
2019-01-05 09:10,50.630455,-96.9807733333333,8.5,10.8,357,978.92,-6.1,100,0.70,0.0,1007.05,310.6
2019-01-05 09:20,50.630455,-96.980775,8.3,10.0,355,979.08,-6.2,100,0.71,0.0,1007.22,310.6
2019-01-05 09:30,50.630455,-96.980775,8.8,13.6,353,979.21,-6.3,100,0.71,0.0,1007.36,310.6
2019-01-05 09:40,50.6304416666667,-96.9807766666667,10.6,13.6,351,979.30,-6.3,100,0.71,0.0,1007.46,310.6
2019-01-05 09:50,50.6304716666667,-96.9807783333333,10.4,14.4,350,979.57,-6.2,100,0.71,0.0,1007.76,310.6
2019-01-05 10:00,50.6304583333333,-96.98078,10.2,12.8,350,979.72,-6.3,100,0.71,0.0,1007.92,360.0
2019-01-05 10:10,50.63046,-96.9807866666667,10.7,13.3,349,979.80,-6.3,100,0.70,0.0,1008.01,360.0
2019-01-05 10:20,50.6304566666667,-96.9807766666667,10.3,12.6,344,980.05,-6.3,100,0.70,0.0,1008.28,360.0
2019-01-05 10:30,50.6304533333333,-96.9807733333333,10.9,13.5,348,980.22,-6.3,100,0.70,0.0,1008.46,360.0
2019-01-05 10:40,50.6304516666667,-96.980775,10.9,14.1,346,980.39,-6.3,100,0.71,0.0,1008.65,360.0
2019-01-05 10:50,50.6304333333333,-96.9808,10.4,14.3,347,980.56,-6.2,99,0.70,0.0,1008.85,360.0
2019-01-05 11:00,50.6304366666667,-96.98081,9.8,13.0,346,980.95,-6.3,99,0.70,0.0,1009.27,245.3
2019-01-05 11:10,50.630445,-96.9807766666667,9.2,12.3,347,981.19,-6.4,99,0.70,0.0,1009.53,245.3
2019-01-05 11:20,50.6304516666667,-96.9807733333333,8.4,11.0,343,981.45,-6.3,99,0.70,0.0,1009.79,245.3
2019-01-05 11:30,50.6304533333333,-96.9807666666667,7.5,11.2,335,981.77,-6.2,99,0.69,0.0,1010.11,245.3
2019-01-05 11:40,50.6304366666667,-96.9807483333333,6.9,10.1,332,982.11,-6.2,99,0.70,0.0,1010.46,245.3
2019-01-05 11:50,50.63045,-96.9807766666667,6.8,10.9,332,982.35,-6.1,99,0.70,0.0,1010.72,245.3
2019-01-05 12:00,50.63045,-96.98078,7.1,10.4,327,982.52,-6.2,99,0.70,0.0,1010.89,240.8
2019-01-05 12:10,50.63045,-96.9807766666667,6.8,9.8,329,982.69,-6.2,99,0.70,0.0,1011.07,240.8
2019-01-05 12:20,50.6304483333333,-96.9807783333333,6.8,10.7,324,982.99,-6.2,99,0.70,0.0,1011.38,240.8
2019-01-05 12:30,50.6304666666667,-96.98078,7.3,11.3,323,983.34,-6.2,99,0.70,0.0,1011.74,240.8
2019-01-05 12:40,50.630455,-96.9807733333333,6.5,9.2,320,983.56,-6.3,99,0.70,0.0,1011.96,240.8
2019-01-05 12:50,50.63046,-96.9807733333333,7.5,12.1,320,983.73,-6.3,99,0.70,0.0,1012.14,240.8
2019-01-05 13:00,50.6304583333333,-96.9807733333333,7.1,11.3,317,984.04,-6.3,99,0.70,0.0,1012.46,90.0
2019-01-05 13:10,50.6304583333333,-96.9807716666667,9.0,15.1,323,984.19,-6.2,99,0.69,0.0,1012.61,90.0
2019-01-05 13:20,50.6304566666667,-96.9807733333333,7.8,12.5,324,984.40,-6.2,99,0.69,0.0,1012.82,90.0
2019-01-05 13:30,50.630455,-96.9807733333333,7.6,13.7,320,984.55,-6.2,99,0.70,0.0,1012.97,90.0
2019-01-05 13:40,50.6304533333333,-96.9807733333333,9.1,14.5,323,984.68,-6.2,99,0.69,0.0,1013.11,90.0
2019-01-05 13:50,50.6304466666667,-96.9807683333333,9.0,12.6,321,984.94,-6.2,98,0.68,0.0,1013.38,90.0
2019-01-05 14:00,50.63045,-96.98077,12.9,18.4,334,985.22,-6.3,97,0.69,0.0,1013.66,60.9
2019-01-05 14:10,50.63045,-96.9807916666667,11.5,17.2,342,985.53,-6.4,98,0.69,0.0,1013.99,60.9
2019-01-05 14:20,50.630445,-96.9807766666667,11.9,17.8,345,985.78,-6.5,99,0.68,0.0,1014.26,60.9
2019-01-05 14:30,50.6304383333333,-96.9807833333333,12.2,16.2,342,986.04,-6.6,97,0.68,0.0,1014.53,60.9
2019-01-05 14:40,50.6304283333333,-96.9807516666667,9.8,14.3,333,986.31,-6.6,97,0.68,0.0,1014.81,60.9
2019-01-05 14:50,50.6304433333333,-96.9807683333333,9.4,13.6,325,986.56,-6.6,97,0.68,0.0,1015.07,60.9
2019-01-05 15:00,50.6304433333333,-96.98077,8.0,12.3,329,986.78,-6.5,98,0.68,0.0,1015.29,137.2
2019-01-05 15:10,50.6304466666667,-96.98077,7.5,11.5,326,987.00,-6.5,97,0.68,0.0,1015.51,137.2
2019-01-05 15:20,50.6304483333333,-96.9807716666667,5.9,9.0,324,987.16,-6.4,97,0.68,0.0,1015.68,137.2
2019-01-05 15:30,50.6304466666667,-96.98077,6.3,11.0,318,987.19,-6.4,96,0.69,0.0,1015.70,137.2
2019-01-05 15:40,50.6304466666667,-96.9807683333333,7.1,10.9,319,987.58,-6.3,95,0.69,0.0,1016.10,137.2
2019-01-05 15:50,50.6304466666667,-96.9807683333333,7.9,13.9,329,987.67,-6.1,94,0.68,0.0,1016.18,137.2
2019-01-05 16:00,50.630445,-96.9807683333333,9.1,12.6,331,987.77,-6.0,93,0.68,0.0,1016.29,360.0
2019-01-05 16:10,50.6304466666667,-96.9807683333333,9.9,14.9,321,987.92,-6.1,92,0.68,0.0,1016.45,360.0
2019-01-05 16:20,50.6304466666667,-96.98077,12.1,17.6,340,988.11,-6.2,93,0.68,0.0,1016.65,360.0
2019-01-05 16:30,50.6304466666667,-96.9807683333333,12.9,18.2,344,988.30,-6.2,95,0.69,0.0,1016.85,360.0
2019-01-05 16:40,50.6304466666667,-96.9807683333333,12.0,16.8,339,988.57,-6.3,95,0.68,0.0,1017.14,360.0
2019-01-05 16:50,50.6304466666667,-96.9807683333333,10.5,16.3,328,988.79,-6.3,95,0.68,0.0,1017.36,360.0
2019-01-05 17:00,50.6304466666667,-96.9807683333333,8.8,13.4,311,989.04,-6.3,94,0.68,0.0,1017.61,360.0
2019-01-05 17:10,50.6304466666667,-96.9807683333333,9.3,15.2,316,989.29,-6.3,94,0.68,0.0,1017.86,360.0
2019-01-05 17:20,50.6304466666667,-96.9807683333333,11.5,17.0,312,989.26,-6.6,90,0.68,0.0,1017.85,360.0
2019-01-05 17:30,50.6304483333333,-96.9807633333333,10.9,15.1,309,989.41,-6.8,88,0.68,0.0,1018.01,360.0
2019-01-05 17:40,50.6304566666667,-96.9807583333333,9.2,14.0,326,989.74,-7.0,86,0.68,0.0,1018.35,360.0
2019-01-05 17:50,50.6304466666667,-96.9807633333333,9.9,15.5,344,989.94,-7.1,84,0.68,0.0,1018.56,360.0
2019-01-05 18:00,50.630455,-96.9807683333333,9.6,14.8,334,990.13,-7.3,82,0.68,0.0,1018.76,360.0
2019-01-05 18:10,50.6304633333333,-96.9807783333333,10.6,15.3,317,990.21,-7.3,79,0.68,0.0,1018.85,360.0
2019-01-05 18:20,50.63045,-96.98077,9.3,13.9,311,990.31,-7.3,76,0.68,0.0,1018.96,360.0
2019-01-05 18:30,50.63045,-96.9807666666667,9.6,15.0,312,990.41,-7.2,76,0.69,0.0,1019.06,360.0
2019-01-05 18:40,50.6304483333333,-96.980765,9.2,13.8,317,990.49,-7.3,76,0.68,0.0,1019.14,360.0
2019-01-05 18:50,50.63045,-96.9807683333333,10.0,16.3,323,990.60,-7.3,77,0.68,0.0,1019.26,360.0
2019-01-05 19:00,50.6304516666667,-96.9807666666667,11.2,16.4,326,990.74,-7.4,77,0.68,0.0,1019.41,360.0
2019-01-05 19:10,50.6304516666667,-96.9807683333333,12.5,16.9,330,990.83,-7.5,76,0.70,0.0,1019.53,360.0
2019-01-05 19:20,50.6304516666667,-96.9807683333333,13.4,20.3,327,990.84,-7.6,74,0.70,0.0,1019.55,360.0
2019-01-05 19:30,50.63045,-96.9807683333333,11.3,19.2,313,991.12,-7.5,73,0.70,0.0,1019.84,360.0
2019-01-05 19:40,50.6304483333333,-96.9807683333333,12.0,16.5,328,991.40,-7.4,73,0.71,0.0,1020.13,360.0
2019-01-05 19:50,50.6304466666667,-96.98077,11.1,16.7,329,991.60,-7.4,73,0.71,0.0,1020.35,360.0
2019-01-05 20:00,50.6304466666667,-96.98077,10.2,17.2,329,991.74,-7.3,72,0.72,0.0,1020.49,0.0
2019-01-05 20:10,50.6304466666667,-96.98077,12.2,17.9,338,991.85,-7.3,73,0.72,0.0,1020.60,0.0
2019-01-05 20:20,50.630445,-96.98077,12.3,17.8,326,991.90,-7.4,71,0.72,0.0,1020.65,0.0
2019-01-05 20:30,50.630445,-96.98077,9.8,15.4,336,992.06,-7.2,72,0.72,0.0,1020.81,0.0
2019-01-05 20:40,50.630445,-96.98077,10.0,13.1,350,992.18,-7.3,73,0.72,0.0,1020.94,0.0
2019-01-05 20:50,50.6304433333333,-96.9807716666667,8.9,12.4,340,992.33,-7.3,72,0.72,0.0,1021.10,0.0
2019-01-05 21:00,50.6304416666667,-96.980775,8.5,12.3,338,992.58,-7.2,72,0.71,0.0,1021.36,194.5
2019-01-05 21:10,50.6304433333333,-96.980775,8.2,13.2,332,992.75,-7.2,71,0.71,0.0,1021.54,194.5
2019-01-05 21:20,50.6304433333333,-96.9807783333333,8.6,13.0,320,992.82,-7.2,71,0.71,0.0,1021.61,194.5
2019-01-05 21:30,50.6304433333333,-96.98078,6.9,9.9,320,993.02,-7.2,71,0.71,0.0,1021.81,194.5
2019-01-05 21:40,50.6304433333333,-96.98078,5.7,9.4,320,993.21,-7.3,73,0.71,0.0,1022.01,194.5
2019-01-05 21:50,50.630445,-96.9807783333333,6.4,9.3,330,993.47,-7.3,73,0.71,0.0,1022.27,194.5
2019-01-05 22:00,50.630445,-96.9807783333333,7.8,12.2,6,993.63,-7.6,78,0.72,0.0,1022.45,222.8
2019-01-05 22:10,50.6304433333333,-96.9807783333333,9.3,10.9,9,993.74,-8.2,83,0.72,0.0,1022.60,222.8
2019-01-05 22:20,50.6304433333333,-96.9807766666667,10.4,12.6,11,993.87,-8.3,84,0.71,0.0,1022.74,222.8
2019-01-05 22:30,50.630445,-96.9807766666667,9.7,12.8,9,994.00,-8.4,85,0.71,0.0,1022.87,222.8
2019-01-05 22:40,50.6304266666667,-96.9807733333333,9.6,11.0,11,994.15,-8.4,85,0.71,0.0,1023.03,222.8
2019-01-05 22:50,50.6304516666667,-96.9807666666667,9.4,10.8,10,994.27,-8.5,86,0.71,0.0,1023.15,222.8
2019-01-05 23:00,50.6304533333333,-96.980765,9.6,11.4,12,994.30,-8.5,86,0.71,0.0,1023.19,38.0
2019-01-05 23:10,50.6304616666667,-96.9807716666667,9.2,11.0,14,994.34,-8.5,86,0.71,0.0,1023.23,38.0
2019-01-05 23:20,50.6304533333333,-96.98076,7.9,9.7,12,994.47,-8.5,86,0.72,0.0,1023.37,38.0
2019-01-05 23:30,50.6304516666667,-96.9807616666667,7.5,8.9,13,994.62,-8.5,87,0.73,0.0,1023.52,38.0
2019-01-05 23:40,50.63045,-96.9807633333333,6.7,7.9,9,994.75,-8.5,88,0.74,0.0,1023.65,38.0
